Flag for Cuba Weather past 2 weeks in Camagüey, Cuba

Now
81 °F

Partly sunny.


Feels Like: 85 °F
Forecast: 74 / 78 °F
Wind: 10 mph from Southwest

Location: Camaguey Aeropuerto

Current Time: Oct 25, 2014 at 1:08:20 PM

Latest Report: Oct 25, 2014 at 11:50 AM


Visibility: 6 mi

Pressure: 29.86 "Hg

Humidity: 79%

Dew point: 73 °F

Location of CamagüeyLocation

Historic Weather in Camagüey — Graph

°F

Camagüey temperature yesterday

Maximum temperature yesterday: 82 °F (at 3:51 PM)
Minimum temperature yesterday: 73 °F (at 6:54 AM)
Average temperature yesterday: 77 °F

Past Weeks' High & Low Weather Summary

 TemperatureHumidityPressure
High91 °F (Oct 11, 1:50 PM)94% (Oct 10, 9:50 PM)30.04 "Hg (Oct 10, 9:50 PM)
Low70 °F (Oct 20, 6:51 AM)43% (Oct 11, 12:50 PM)29.80 "Hg (Oct 24, 4:51 PM)
Average78 °F78%29.95 "Hg
* Reported Oct 10 11:50 AM — Oct 25 11:50 AM, Camagüey, Weather by CustomWeather, © 2014

Note: Actual official high and low records may vary slightly from our data, if they occured in-between our weather recording intervals... More about our weather records

Advertising

Camagüey weather history for previous 24 hours

 ConditionsComfort  
Time TempWeatherWind HumidityBarometerVisibility
11:50 AM
Oct 25
81 °FPartly sunny.10 mph79%29.86 "Hg6 mi
10:50 AM79 °FLight rain. Partly sunny.10 mph84%29.89 "Hg4 mi
9:50 AM79 °FBroken clouds.9 mph84%29.89 "Hg6 mi
8:50 AM75 °FBroken clouds.10 mph94%29.89 "Hg6 mi
7:50 AM75 °FPassing clouds.9 mph89%29.86 "Hg6 mi
6:50 AM73 °FPassing clouds.9 mph94%29.86 "Hg6 mi
5:50 AM73 °FLight rain. Passing clouds.8 mph94%29.86 "Hg5 mi
4:50 AM75 °FPassing clouds.10 mph89%29.83 "Hg6 mi
3:50 AM75 °FPassing clouds.9 mph89%29.83 "Hg6 mi
2:52 AM75 °FPassing clouds.9 mph89%29.86 "Hg6 mi
1:50 AM75 °FPassing clouds.8 mph89%29.86 "Hg6 mi
12:50 AM73 °FPassing clouds.6 mph94%29.89 "Hg6 mi
11:50 PM
Oct 24
73 °FPassing clouds.6 mph94%29.89 "Hg6 mi
10:50 PM73 °FPassing clouds.8 mph94%29.89 "Hg6 mi
9:50 PM73 °FPassing clouds.3 mph94%29.86 "Hg6 mi
8:51 PM73 °FLight rain. Passing clouds.5 mph89%29.89 "Hg5 mi
7:50 PM79 °FPassing clouds.5 mph84%29.83 "Hg6 mi
6:50 PM79 °FPartly sunny.7 mph89%29.83 "Hg6 mi
5:50 PM81 °FBroken clouds.9 mph84%29.83 "Hg6 mi
4:51 PM81 °FBroken clouds.10 mph79%29.80 "Hg6 mi
3:51 PM82 °FBroken clouds.12 mph79%29.83 "Hg6 mi
2:50 PM79 °FBroken clouds.7 mph89%29.83 "Hg6 mi
1:51 PM79 °FBroken clouds.8 mph84%29.86 "Hg6 mi
Weather by CustomWeather, © 2014

See weather overviewHow to use our weather pages